Regional Weather Roundup
Issued by NWS

Home | Current Version | Previous Version | Text Only | Print | Product List | Glossary Off
Versions: 1 2 3 4 5 6 7 8 9 10 11 12 13 14 15 16 17 18 19 20 21 22 23 24 25 26 27 28 29 30 31 32 33 34 35 36 37 38 39 40 41 42 43 44 45 46 47 48 49 50

068
ASUS43 KFSD 051010
RWRSD

WEATHER ROUNDUP FOR SOUTH DAKOTA
NATIONAL WEATHER SERVICE SIOUX FALLS SD
500 AM CDT THU MAY 05 2016

NOTE: "FAIR" INDICATES FEW OR NO CLOUDS BELOW 12,000 FEET WITH NO
SIGNIFICANT WEATHER AND/OR OBSTRUCTIONS TO VISIBILITY.


SDZ001>005-009-010-012>017-051100-
NORTHWEST AND NORTH CENTRAL SOUTH DAKOTA

CITY           SKY/WX    TMP DP  RH WIND       PRES   REMARKS
BUFFALO          N/A     53  42  66 SE6       29.89F
FAITH            N/A     49  40  71 S16       29.95F
MOBRIDGE       CLEAR     49  44  83 SE9       29.94S
$$

SDZ012>016-024>037-041>051-057-063-072>074-051100-
SOUTHWEST AND SOUTH CENTRAL SOUTH DAKOTA

CITY           SKY/WX    TMP DP  RH WIND       PRES   REMARKS
RAPID CTY ARPT CLEAR     46  41  82 SE7       29.97F
PIERRE         CLEAR     49  41  74 SW6       29.98F
CUSTER         CLEAR     46  34  62 N6        30.08F
ELLSWORTH AFB  CLEAR     54  41  61 S8        29.96S
PHILIP         CLEAR     54  40  59 SE8G18    29.98F
PINE RIDGE     CLEAR     52  40  63 SW6       30.01F
WINNER         FAIR      52  38  58 SW12      30.03F
$$

SDZ004>011-016>023-039-040-051100-
NORTHEAST SOUTH DAKOTA

CITY           SKY/WX    TMP DP  RH WIND       PRES   REMARKS
ABERDEEN       CLEAR     40  35  83 S8        29.97S
WATERTOWN      CLEAR     43  35  73 S5        29.99S
BROOKINGS      CLEAR     38  35  89 CALM      30.01S
SISSETON         N/A     50  32  50 S6        29.94S
$$

SDZ017-020-022-023-036>040-048>070-051100-
SOUTHEAST SOUTH DAKOTA

CITY           SKY/WX    TMP DP  RH WIND       PRES   REMARKS
SIOUX FALLS    CLEAR     41  35  79 CALM      30.03R
HURON          CLEAR     45  40  82 S5        29.99S
CHAMBERLAIN    PTCLDY    50  45  83 SW3       30.02S
MITCHELL       CLEAR     48  42  80 CALM      30.02S
YANKTON        CLEAR     45  37  76 CALM      30.03S
$$

ABBREVIATIONS USED IN REMARKS
   TC - TEMPERATURE IN CELSIUS
  WCI - WIND CHILL INDEX
   HX - HEAT INDEX
  VSB - VISIBILITY





USA.gov is the U.S. government's official web portal to all federal, state and local government web resources and services.